sat.trackr.live / text

‹ back to catalog

STARLINK-33911

NORAD 63777 · 2025-091C

PAYLOAD ACTIVE UNKNOWN

§ Identity

Operator
Country
US
Launch date
2025-05-02
Launch site
AFETR
Launch vehicle
Mass (kg)
RCS (m²)

Purposes: comms

External: N2YO · Heavens-Above · Gunter

§ Orbital elements

Epoch: 2026-09-20T09:44:00.379680Z

Period
94.27 min
Inclination
43.0042°
Eccentricity
0.0001569
Mean motion
15.27586372 rev/d
Perigee alt
482.0 km
Apogee alt
484.1 km
Semi-major
6,861.2 km
B*
4.3594e-4
RAAN
25.7202°
Arg perigee
249.4169°
Mean anomaly
110.6515°
Rev number
7,876

§ Raw data

STARLINK-339111 63777U 25091C   26263.40555995  .00011755  00000+0  43594-3 0  99942 63777  43.0042  25.7202 0001569 249.4169 110.6515 15.27586372 78762

JSON: /api/v1/satellites/63777 · /tle

For live sub-satellite position, see the globe view (requires WebGL).

§ Visibility from observer

Set your observer location to see the next 7 days of passes ≥ 10°. The values pass through the URL so the page stays shareable.

No JS? Fill the form by hand. The geolocation button needs JavaScript.